Tracking 27086 objects as of 22-Mar-2023
HD Live streaming from Space Station
objects crossing your sky now

STARLINK-1854

Track STARLINK-1854 now!
10-day predictions
STARLINK-1854 is classified as:


NORAD ID: 47141
Int'l Code: 2020-088V
Perigee: 553.4 km
Apogee: 555.4 km
Inclination: 53.1 °
Period: 95.6 minutes
Semi major axis: 6925 km
RCS: Unknown
Launch date: November 25, 2020
Source: United States (US)
Launch site: AIR FORCE EASTERN TEST RANGE (AFETR)
Your satellite tracking list
Your tracking list is empty




NASA's NSSDC Master Catalog

Two Line Element Set (TLE):
1 47141U 20088V   23081.32216720  .00016779  00000-0  11432-2 0  9995
2 47141  53.0520 115.0429 0001455  79.9460 280.1693 15.06381953128984
Source of the keplerian elements: AFSPC